TimeEST,TemperatureF,Dew PointF,Humidity,Sea Level PressureIn,VisibilityMPH,Wind Direction,Wind SpeedMPH,Gust SpeedMPH,PrecipitationIn,Events,Conditions,WindDirDegrees,DateUTC
12:15 AM,32.0,32.0,100,29.52,7.0,Calm,Calm,-,N/A,,Overcast,0,2013-02-28 05:15:00
1:15 AM,32.0,32.0,100,29.51,10.0,Calm,Calm,-,N/A,Snow,Light Snow,0,2013-02-28 06:15:00
1:35 AM,32.0,30.2,93,29.51,5.0,Calm,Calm,-,N/A,Snow,Light Snow,0,2013-02-28 06:35:00
1:55 AM,32.0,30.2,93,29.51,10.0,Calm,Calm,-,N/A,Snow,Light Snow,0,2013-02-28 06:55:00
2:15 AM,32.0,30.2,93,29.50,7.0,Calm,Calm,-,N/A,,Overcast,0,2013-02-28 07:15:00
2:35 AM,30.2,30.2,100,29.49,7.0,Calm,Calm,-,N/A,Snow,Light Snow,0,2013-02-28 07:35:00
2:55 AM,30.2,30.2,100,29.49,5.0,Calm,Calm,-,N/A,Snow,Light Snow,0,2013-02-28 07:55:00
3:15 AM,30.2,30.2,100,29.48,5.0,Calm,Calm,-,N/A,Snow,Light Snow,0,2013-02-28 08:15:00
3:35 AM,30.2,30.2,100,29.48,2.5,Calm,Calm,-,N/A,Snow,Light Snow,0,2013-02-28 08:35:00
3:55 AM,30.2,30.2,100,29.48,2.5,Calm,Calm,-,N/A,Snow,Light Snow,0,2013-02-28 08:55:00
4:15 AM,30.2,30.2,100,29.48,2.5,Calm,Calm,-,N/A,Snow,Light Snow,0,2013-02-28 09:15:00
4:35 AM,30.2,30.2,100,29.48,1.8,Calm,Calm,-,N/A,Snow,Light Snow,0,2013-02-28 09:35:00
4:55 AM,30.2,30.2,100,29.48,4.0,Calm,Calm,-,N/A,Snow,Light Snow,0,2013-02-28 09:55:00
5:15 AM,30.2,28.4,93,29.49,7.0,Calm,Calm,-,N/A,Snow,Light Snow,0,2013-02-28 10:15:00
5:35 AM,30.2,28.4,93,29.49,7.0,Calm,Calm,-,N/A,Snow,Light Snow,0,2013-02-28 10:35:00
5:55 AM,30.2,28.4,93,29.49,2.0,Calm,Calm,-,N/A,Snow,Light Snow,0,2013-02-28 10:55:00
6:15 AM,30.2,28.4,93,29.49,7.0,Calm,Calm,-,N/A,Snow,Light Snow,0,2013-02-28 11:15:00
6:35 AM,30.2,28.4,93,29.50,10.0,Calm,Calm,-,N/A,Snow,Light Snow,0,2013-02-28 11:35:00
6:55 AM,28.4,28.4,100,29.50,7.0,Calm,Calm,-,N/A,Snow,Light Snow,0,2013-02-28 11:55:00
7:15 AM,28.4,26.6,93,29.50,10.0,Calm,Calm,-,N/A,Snow,Light Snow,0,2013-02-28 12:15:00
7:35 AM,28.4,26.6,93,29.50,2.5,Calm,Calm,-,N/A,Snow,Light Snow,0,2013-02-28 12:35:00
7:55 AM,28.4,28.4,100,29.51,1.8,Calm,Calm,-,N/A,Snow,Light Snow,0,2013-02-28 12:55:00
8:15 AM,28.4,28.4,100,29.51,1.5,Calm,Calm,-,N/A,Snow,Light Snow,0,2013-02-28 13:15:00
8:35 AM,30.2,28.4,93,29.51,1.2,Calm,Calm,-,N/A,Snow,Light Snow,0,2013-02-28 13:35:00
8:55 AM,30.2,28.4,93,29.51,1.2,Calm,Calm,-,N/A,Snow,Light Snow,0,2013-02-28 13:55:00
9:15 AM,30.2,28.4,93,29.51,4.0,Calm,Calm,-,N/A,Snow,Light Snow,0,2013-02-28 14:15:00
9:35 AM,30.2,28.4,93,29.51,2.0,Calm,Calm,-,N/A,Snow,Light Snow,0,2013-02-28 14:35:00
9:55 AM,30.2,30.2,100,29.51,1.5,Calm,Calm,-,N/A,Snow,Light Snow,0,2013-02-28 14:55:00
10:15 AM,30.2,30.2,100,29.51,1.8,Calm,Calm,-,N/A,Snow,Light Snow,0,2013-02-28 15:15:00
10:35 AM,30.2,30.2,100,29.51,1.5,Calm,Calm,-,N/A,Snow,Light Snow,0,2013-02-28 15:35:00
10:55 AM,30.2,28.4,93,29.51,1.8,Calm,Calm,-,N/A,Snow,Light Snow,0,2013-02-28 15:55:00
11:15 AM,30.2,28.4,93,29.52,1.8,WSW,3.5,-,N/A,Snow,Light Snow,250,2013-02-28 16:15:00
11:35 AM,32.0,28.4,87,29.52,2.0,West,4.6,-,N/A,Snow,Light Snow,260,2013-02-28 16:35:00
11:55 AM,32.0,28.4,87,29.52,4.0,WSW,5.8,-,N/A,Snow,Light Snow,250,2013-02-28 16:55:00
12:15 PM,32.0,28.4,87,29.52,3.0,WSW,6.9,-,N/A,Snow,Light Snow,250,2013-02-28 17:15:00
12:35 PM,32.0,28.4,87,29.52,2.0,Calm,Calm,-,N/A,Snow,Light Snow,0,2013-02-28 17:35:00
12:55 PM,32.0,28.4,87,29.51,4.0,WSW,5.8,-,N/A,Snow,Light Snow,240,2013-02-28 17:55:00
1:15 PM,32.0,28.4,87,29.51,3.0,WSW,4.6,-,N/A,Snow,Light Snow,240,2013-02-28 18:15:00
1:35 PM,32.0,28.4,87,29.51,7.0,WSW,3.5,-,N/A,,Overcast,240,2013-02-28 18:35:00
1:55 PM,32.0,28.4,87,29.52,7.0,WSW,4.6,-,N/A,Snow,Light Snow,240,2013-02-28 18:55:00
2:15 PM,32.0,28.4,87,29.52,3.0,Calm,Calm,-,N/A,Snow,Light Snow,0,2013-02-28 19:15:00
2:35 PM,32.0,28.4,87,29.52,3.0,Calm,Calm,-,N/A,Snow,Light Snow,0,2013-02-28 19:35:00
2:55 PM,32.0,28.4,87,29.52,2.5,West,4.6,-,N/A,Snow,Light Snow,280,2013-02-28 19:55:00
3:15 PM,32.0,28.4,87,29.52,10.0,Calm,Calm,-,N/A,Snow,Light Snow,0,2013-02-28 20:15:00
3:35 PM,32.0,28.4,87,29.53,10.0,Calm,Calm,-,N/A,,Overcast,0,2013-02-28 20:35:00
3:55 PM,32.0,28.4,87,29.53,10.0,Calm,Calm,-,N/A,,Overcast,0,2013-02-28 20:55:00
4:15 PM,30.2,28.4,93,29.54,10.0,Calm,Calm,-,N/A,,Overcast,0,2013-02-28 21:15:00
4:35 PM,30.2,28.4,93,29.54,10.0,Calm,Calm,-,N/A,,Overcast,0,2013-02-28 21:35:00
4:55 PM,30.2,28.4,93,29.55,10.0,Calm,Calm,-,N/A,,Overcast,0,2013-02-28 21:55:00
5:15 PM,30.2,28.4,93,29.56,10.0,Calm,Calm,-,N/A,,Overcast,0,2013-02-28 22:15:00
5:35 PM,30.2,28.4,93,29.57,7.0,Calm,Calm,-,N/A,,Overcast,0,2013-02-28 22:35:00
5:55 PM,30.2,28.4,93,29.58,7.0,Calm,Calm,-,N/A,,Overcast,0,2013-02-28 22:55:00
6:15 PM,30.2,28.4,93,29.59,4.0,Calm,Calm,-,N/A,,Overcast,0,2013-02-28 23:15:00
6:35 PM,30.2,30.2,100,29.59,2.0,Calm,Calm,-,N/A,Snow,Light Snow,0,2013-02-28 23:35:00
6:55 PM,30.2,30.2,100,29.60,4.0,Calm,Calm,-,N/A,,Overcast,0,2013-02-28 23:55:00
7:15 PM,30.2,30.2,100,29.61,5.0,Calm,Calm,-,N/A,Snow,Light Snow,0,2013-03-01 00:15:00
7:35 PM,30.2,28.4,93,29.61,3.0,Calm,Calm,-,N/A,Snow,Light Snow,0,2013-03-01 00:35:00
8:15 PM,28.4,28.4,100,29.63,2.5,Calm,Calm,-,N/A,,Overcast,0,2013-03-01 01:15:00
8:35 PM,28.4,28.4,100,29.63,2.5,Calm,Calm,-,N/A,,Overcast,0,2013-03-01 01:35:00
9:15 PM,28.4,28.4,100,29.64,3.0,Calm,Calm,-,N/A,,Overcast,0,2013-03-01 02:15:00
9:35 PM,28.4,28.4,100,29.64,4.0,Calm,Calm,-,N/A,,Overcast,0,2013-03-01 02:35:00
9:55 PM,28.4,28.4,100,29.65,4.0,Calm,Calm,-,N/A,Snow,Light Snow,0,2013-03-01 02:55:00
10:15 PM,28.4,28.4,100,29.64,2.0,Calm,Calm,-,N/A,Snow,Light Snow,0,2013-03-01 03:15:00
10:35 PM,28.4,28.4,100,29.64,4.0,Calm,Calm,-,N/A,Snow,Light Snow,0,2013-03-01 03:35:00
10:55 PM,28.4,28.4,100,29.65,5.0,Calm,Calm,-,N/A,,Overcast,0,2013-03-01 03:55:00
11:15 PM,28.4,28.4,100,29.66,3.0,Calm,Calm,-,N/A,Snow,Light Snow,0,2013-03-01 04:15:00
11:35 PM,28.4,28.4,100,29.66,3.0,Calm,Calm,-,N/A,Snow,Light Snow,0,2013-03-01 04:35:00
11:55 PM,28.4,28.4,100,29.66,3.0,Calm,Calm,-,N/A,Snow,Light Snow,0,2013-03-01 04:55:00